Gillette, WY

11:20 PM MDT on March 23, 2017 (GMT -0600)
Gillette-Campbell County

Weather History for KGCC - August, 2012

Change the Weather History Date:

Wednesday, August 1, 2012

  Actual Average Record
Temperature  
Mean Temperature 79 °F 72 °F  
Max Temperature 94 °F 88 °F 102 °F (1955)
Min Temperature 63 °F 57 °F 42 °F (1968)
Degree Days  
Heating Degree Days 0 0  
Month to date heating degree days 0 0  
Since 1 June heating degree days 62 161  
Since 1 July heating degree days 2 19  
Cooling Degree Days 14 8  
Month to date cooling degree days 14 8  
Year to date cooling degree days 541 290  
Since 1 June cooling degree days 531 282  
Growing Degree Days 30 (Base 50)    
Moisture  
Dew Point 44 °F    
Average Humidity 36    
Maximum Humidity 56    
Minimum Humidity 15    
Precipitation  
Precipitation 0.00 in 0.05 in 0.58 in (1956)
Month to date precipitation 0.00 0.05  
Year to date precipitation 7.34 9.58  
Sea Level Pressure  
Sea Level Pressure 29.84 in    
Wind  
Wind Speed 12 mph (NNE)    
Max Wind Speed 28 mph    
Max Gust Speed 33 mph    
Visibility 10 miles    
Events      
T = Trace of Precipitation, MM = Missing Value Source: NWS Daily Summary

Daily Weather History Graph

Daily Weather History Graph

Search for Another Location

Airport or City:

Trip Planner

Search our weather history database for the weather conditions in past years. The results will help you decide how hot, cold, wet, or windy it might be!

Date:

Astronomy

Aug. 01, 2012 Rise Set
Actual Time 5:49 AM MDT 8:26 PM MDT
Civil Twilight 5:16 AM MDT 8:59 PM MDT
Nautical Twilight 4:35 AM MDT 9:40 PM MDT
Astronomical Twilight 3:47 AM MDT 10:27 PM MDT
Moon 7:55 PM MDT (8/1) 5:23 AM MDT (8/1)
Length of Visible Light 15h 42m
Length of Day
14h 36m
Full, 100% of the Moon is Illuminated
Aug 1
Full
Aug 1
Full
Aug 9
Last Quarter
Aug 17
New
Aug 24
First Quarter

Hourly Weather History & Observations

Time (MDT) Temp. Dew Point Humidity Pressure Visibility Wind Dir Wind Speed Gust Speed Precip Events Conditions
12:53 AM 75.0 °F 45.0 °F 34% 29.85 in 10.0 mi South 10.4 mph - N/A   Clear
1:53 AM 75.0 °F 46.0 °F 36% 29.83 in 10.0 mi South 13.8 mph - N/A   Clear
2:53 AM 75.0 °F 46.0 °F 36% 29.82 in 10.0 mi South 11.5 mph - N/A   Clear
3:53 AM 73.9 °F 46.0 °F 37% 29.83 in 10.0 mi NNE 8.1 mph - N/A   Clear
4:53 AM 72.0 °F 46.0 °F 40% 29.82 in 10.0 mi ESE 3.5 mph - N/A   Clear
5:53 AM 66.9 °F 46.9 °F 49% 29.83 in 10.0 mi South 6.9 mph - N/A   Clear
6:53 AM 71.1 °F 48.0 °F 44% 29.81 in 10.0 mi SSE 9.2 mph - N/A   Clear
7:53 AM 73.9 °F 48.0 °F 40% 29.83 in 10.0 mi South 9.2 mph - N/A   Clear
8:53 AM 79.0 °F 45.0 °F 30% 29.82 in 10.0 mi SSW 8.1 mph - N/A   Clear
9:53 AM 89.1 °F 41.0 °F 19% 29.82 in 10.0 mi West 19.6 mph 26.5 mph N/A   Clear
10:53 AM 91.0 °F 39.0 °F 16% 29.83 in 10.0 mi NW 25.3 mph 31.1 mph N/A   Clear
11:53 AM 91.0 °F 44.1 °F 20% 29.83 in 10.0 mi North 18.4 mph 26.5 mph N/A   Clear
12:53 PM 91.9 °F 39.0 °F 16% 29.83 in 10.0 mi NW 19.6 mph 29.9 mph N/A   Clear
1:53 PM 93.0 °F 41.0 °F 16% 29.84 in 10.0 mi North 23.0 mph 28.8 mph N/A   Clear
2:53 PM 93.0 °F 39.0 °F 15% 29.83 in 10.0 mi NNW 18.4 mph 29.9 mph N/A   Clear
3:53 PM 91.9 °F 45.0 °F 20% 29.83 in 10.0 mi North 17.3 mph 31.1 mph N/A   Clear
4:53 PM 91.0 °F 44.1 °F 20% 29.83 in 10.0 mi NNE 13.8 mph 24.2 mph N/A   Clear
5:53 PM 89.1 °F 43.0 °F 20% 29.85 in 10.0 mi NNW 17.3 mph - N/A   Clear
6:53 PM 87.1 °F 42.1 °F 21% 29.85 in 10.0 mi North 13.8 mph - N/A   Clear
7:53 PM 82.9 °F 45.0 °F 26% 29.85 in 10.0 mi NE 11.5 mph - N/A   Clear
8:53 PM 77.0 °F 48.0 °F 36% 29.87 in 10.0 mi East 10.4 mph - N/A   Clear
9:53 PM 68.0 °F 46.9 °F 47% 29.89 in 10.0 mi Calm Calm - N/A   Clear
11:53 PM 64.9 °F 48.0 °F 54% 29.89 in 10.0 mi Variable 3.5 mph - N/A   Clear